Location: Brachbach
(49.1847°N, 9.7240°E)
Time: 23:08:55
(UTC+00:00)

JY1SAT - Visible Passes

Search period start: 12 March 2026 00:00
Search period end: 22 March 2026 00:00
Orbit: 471 x 478 km, 97.4° (Epoch: 12 March)

Date Brightness Start Highest point End Pass type
(mag) Time Alt. Az. Time Alt. Az. Time Alt. Az.
12 Mar ? 20:03:33 17° N 20:03:33 17° N 20:04:28 10° N visible
13 Mar ? 19:35:41 16° NNE 19:35:41 16° NNE 19:36:38 10° N visible
13 Mar ? 21:09:50 11° NW 21:09:50 11° NW 21:09:56 10° NW visible
14 Mar ? 19:07:49 11° NE 19:07:49 11° NE 19:08:16 10° NNE visible
14 Mar ? 20:41:57 16° NNW 20:41:57 16° NNW 20:42:46 10° NNW visible
15 Mar ? 20:14:02 20° N 20:14:02 20° N 20:15:15 10° N visible
16 Mar ? 19:46:05 19° NNE 19:46:05 19° NNE 19:47:26 10° N visible
16 Mar ? 21:20:13 10° NW 21:20:13 10° NW 21:20:18 10° NW visible
17 Mar ? 19:18:06 14° NE 19:18:06 14° NE 19:19:12 10° NNE visible
17 Mar ? 20:52:14 17° NNW 20:52:14 17° NNW 20:53:12 10° NNW visible
18 Mar ? 20:24:13 23° NNW 20:24:13 23° NNW 20:25:41 10° NNW visible
19 Mar ? 19:56:10 24° NNE 19:56:10 24° NNE 19:57:52 10° N visible
20 Mar ? 19:28:06 18° NE 19:28:06 18° NE 19:29:43 10° NNE visible
20 Mar ? 21:02:13 17° NW 21:02:13 17° NW 21:03:16 10° NNW visible
21 Mar ? 18:59:59 11° NE 18:59:59 11° NE 19:00:46 10° NE visible
21 Mar ? 20:34:07 26° NNW 20:34:07 26° NNW 20:35:47 10° NNW visible
